Lid_Strength_Index
-2 -1 -1 -1 -1 -1 -1 -1 -0 1 1 1 2 2 2 2 2 5 6 2 0 -2 -0 3 3 4 6 7 7 9 13 15 13 11 10 9 9 9 8 7 7 6 6 5 3
-1 -2 -1 -1 -1 -1 -1 -1 -1 -0 1 2 2 3 3 2 4 7 1 -0 -1 -1 5 5 6 5 8 9 8 11 14 13 9 10 10 9 9 8 8 8 8 7 5 3 3
-1 -1 -1 -1 -1 -1 -1 -1 -2 -2 -1 1 2 3 3 3 8 9 0 0 -1 -1 3 5 6 7 10 9 10 11 13 11 8 7 8 8 9 9 9 10 7 7 6 5 5
-1 -1 -1 -1 -1 -1 -1 -0 -2 -2 -2 -1 -0 1 2 4 17 4 1 1 -0 1 3 6 8 10 11 11 9 12 10 8 7 6 8 9 8 9 9 9 7 5 6 7 7
-1 -0 -1 -1 -1 -1 -1 -1 -0 -1 -0 -1 -1 -0 2 8 9 3 2 2 3 2 5 8 9 10 12 12 10 11 10 7 7 7 8 7 9 9 9 8 6 6 6 6 6
-0 -0 0 -1 -1 -2 -1 -1 -1 -1 -2 -1 0 -0 3 10 2 3 4 2 3 5 7 8 9 8 11 11 11 9 9 8 7 8 8 9 9 9 9 8 7 7 7 6 6
-1 -0 -0 -0 -1 -1 -1 -1 -0 -1 -2 -2 -1 2 7 8 3 3 2 3 2 2 5 7 5 8 9 10 8 9 11 10 9 8 9 9 11 10 8 8 9 8 8 7 7
-1 -1 -1 -0 -1 -1 -1 -1 -1 -1 -2 -2 -1 3 8 4 4 3 3 4 3 1 2 2 4 6 7 7 9 11 13 15 11 9 9 11 15 12 9 10 9 8 8 7 7
-0 -0 -0 -1 -0 -1 -1 -1 -0 -1 -1 -1 4 7 9 2 5 3 3 4 2 2 2 2 4 8 8 10 12 12 18 16 14 9 10 12 15 12 9 10 10 9 9 8 8
0 0 -0 -1 -1 -1 -1 -1 -1 -1 1 2 3 9 7 8 4 3 3 4 4 4 5 6 8 10 11 12 16 14 15 15 16 12 11 12 12 11 9 9 9 9 9 8 8
-0 0 -1 -0 -1 -1 -0 1 5 6 5 8 8 8 7 5 3 5 3 4 4 6 10 8 12 13 11 11 12 12 14 15 14 11 12 13 12 11 9 10 10 9 9 8 9
1 1 -0 -1 -1 -1 1 4 5 5 8 5 5 6 5 5 7 5 3 7 8 11 9 11 14 10 9 10 11 11 13 13 12 10 12 12 12 11 10 9 9 9 9 9 9
1 1 1 -1 -1 1 3 4 2 3 9 7 5 6 6 6 9 8 4 6 9 11 11 13 12 9 10 12 13 12 12 13 14 11 11 14 16 14 11 10 9 9 9 8 9
1 1 1 -0 2 2 4 2 2 3 14 12 9 7 6 6 9 6 5 6 9 11 10 11 9 10 11 12 13 15 10 10 12 13 17 13 20 15 12 11 10 10 10 10 10
1 1 1 -0 3 4 3 2 2 4 20 11 9 5 6 9 9 8 5 7 10 10 10 12 11 11 12 11 9 12 9 11 12 14 16 16 18 16 13 13 12 11 10 10 10
2 1 1 2 1 2 1 2 4 13 19 13 9 10 10 9 9 8 8 7 7 10 11 11 9 10 10 9 10 9 10 11 12 14 20 15 17 19 15 13 12 11 11 11 11
1 1 2 2 4 1 2 4 14 18 13 13 12 10 11 11 10 9 10 11 13 15 15 12 12 10 9 11 10 10 14 19 22 19 20 16 16 16 13 12 11 10 11 11 11
0 2 2 2 2 1 3 10 18 15 15 11 10 10 13 11 11 10 11 13 11 13 14 16 17 11 9 11 12 12 13 19 24 21 19 15 18 15 11 11 10 9 11 12 12
-0 3 4 3 1 2 7 15 15 15 13 12 11 13 13 11 11 11 12 12 11 11 15 16 15 11 10 9 9 13 15 11 17 22 20 18 16 13 12 12 12 12 12 12 13
2 4 6 3 1 3 10 13 13 12 10 10 14 12 15 13 13 13 12 11 12 10 10 12 16 12 11 10 9 11 10 16 15 24 24 21 20 18 15 13 13 13 13 12 13
3 8 5 2 2 7 13 13 13 10 9 13 14 14 13 13 12 13 13 12 9 10 9 12 13 14 11 12 13 12 14 13 14 17 20 22 19 15 14 13 12 12 12 12 13
4 11 6 2 10 11 13 13 10 11 10 11 12 13 13 12 13 13 13 13 8 9 11 11 12 16 14 12 10 11 13 13 17 19 18 18 18 13 13 13 12 12 12 12 12
8 10 5 3 13 13 12 11 10 11 12 12 13 12 11 12 14 12 12 10 9 9 11 10 13 17 16 13 12 13 12 12 13 15 17 20 19 13 13 13 12 12 11 11 11
8 12 10 6 10 12 13 13 12 9 11 11 12 10 11 12 12 13 13 11 9 8 8 8 12 15 18 16 13 14 13 12 13 18 17 17 17 14 13 13 12 12 11 11 11
9 12 12 14 13 11 11 12 13 13 10 10 12 12 12 16 14 14 12 11 10 8 8 10 14 13 13 13 13 14 14 13 14 14 16 16 16 13 12 11 11 11 11 12 11
10 12 11 12 11 11 11 12 12 13 13 13 13 12 11 13 13 13 11 12 11 10 10 9 14 13 15 14 15 16 15 14 14 14 14 14 15 11 10 11 11 11 11 12 12
7 7 10 10 10 11 13 12 12 11 11 11 10 11 11 10 9 9 9 9 9 10 11 11 15 17 21 16 17 22 18 15 14 13 13 16 13 12 12 12 12 12 12 11 11